Location: Brantley
(31.5822°N, 86.2569°W)
Time: 23:13:45
(UTC+00:00)

A-11 Canister half - Pass Details

Date: 23 February 2026
Orbit: 1525 x 1683 km, 47.3° (Epoch: 10 March)

Event Time Altitude Azimuth Distance (km) Brightness Sun altitude
Rises 03:46:58 0° 307° (NW) 4,674 12.1 -52.6°
Reaches altitude 10° 03:50:00 10° 305° (NW) 3,693 11.4 -53.2°
Enters shadow 03:53:21 26° 301° (WNW) 2,666 10.5 -53.8°
